Year,Month,Day,Hour,Minute,Value (Times are PST for temperature in C)
2016,05,29,00,00,12.60
2016,05,29,00,01,12.60
2016,05,29,00,02,12.60
2016,05,29,00,03,12.60
2016,05,29,00,04,12.60
2016,05,29,00,05,12.60
2016,05,29,00,06,12.60
2016,05,29,00,07,12.60
2016,05,29,00,08,12.60
2016,05,29,00,09,12.60
2016,05,29,00,10,12.60
2016,05,29,00,11,12.60
2016,05,29,00,12,12.60
2016,05,29,00,13,12.60
2016,05,29,00,14,12.60
2016,05,29,00,15,12.60
2016,05,29,00,16,12.60
2016,05,29,00,17,12.50
2016,05,29,00,18,12.50
2016,05,29,00,19,12.50
2016,05,29,00,20,12.50
2016,05,29,00,21,12.50
2016,05,29,00,22,12.50
2016,05,29,00,23,12.40
2016,05,29,00,24,12.40
2016,05,29,00,25,12.40
2016,05,29,00,26,12.40
2016,05,29,00,27,12.40
2016,05,29,00,28,12.40
2016,05,29,00,29,12.40
2016,05,29,00,30,12.40
2016,05,29,00,31,12.30
2016,05,29,00,32,12.30
2016,05,29,00,33,12.30
2016,05,29,00,34,12.30
2016,05,29,00,35,12.30
2016,05,29,00,36,12.30
2016,05,29,00,37,12.30
2016,05,29,00,38,12.30
2016,05,29,00,39,12.30
2016,05,29,00,40,12.20
2016,05,29,00,41,12.20
2016,05,29,00,42,12.20
2016,05,29,00,43,12.20
2016,05,29,00,44,12.20
2016,05,29,00,45,12.20
2016,05,29,00,46,12.20
2016,05,29,00,47,12.10
2016,05,29,00,48,12.10
2016,05,29,00,49,12.10
2016,05,29,00,50,12.10
2016,05,29,00,51,12.10
2016,05,29,00,52,12.10
2016,05,29,00,53,12.00
2016,05,29,00,54,12.00
2016,05,29,00,55,12.00
2016,05,29,00,56,12.10
2016,05,29,00,57,12.00
2016,05,29,00,58,12.00
2016,05,29,00,59,12.00
2016,05,29,01,00,12.00
2016,05,29,01,01,12.00
2016,05,29,01,02,12.00
2016,05,29,01,03,12.00
2016,05,29,01,04,12.00
2016,05,29,01,05,12.00
2016,05,29,01,06,12.00
2016,05,29,01,07,12.00
2016,05,29,01,08,12.00
2016,05,29,01,09,12.00
2016,05,29,01,10,12.00
2016,05,29,01,11,12.00
2016,05,29,01,12,12.00
2016,05,29,01,13,11.90
2016,05,29,01,14,12.00
2016,05,29,01,15,12.00
2016,05,29,01,16,12.00
2016,05,29,01,17,12.00
2016,05,29,01,18,12.00
2016,05,29,01,19,12.10
2016,05,29,01,20,12.10
2016,05,29,01,21,12.10
2016,05,29,01,22,12.10
2016,05,29,01,23,12.10
2016,05,29,01,24,12.10
2016,05,29,01,25,12.10
2016,05,29,01,26,12.10
2016,05,29,01,27,12.10
2016,05,29,01,28,12.10
2016,05,29,01,29,12.10
2016,05,29,01,30,12.00
2016,05,29,01,31,12.00
2016,05,29,01,32,12.00
2016,05,29,01,33,12.00
2016,05,29,01,34,12.00
2016,05,29,01,35,12.00
2016,05,29,01,36,11.90
2016,05,29,01,37,11.90
2016,05,29,01,38,11.90
2016,05,29,01,39,11.90
2016,05,29,01,40,11.90
2016,05,29,01,41,11.90
2016,05,29,01,42,11.90
2016,05,29,01,43,11.90
2016,05,29,01,44,11.90
2016,05,29,01,45,11.90
2016,05,29,01,46,11.90
2016,05,29,01,47,11.90
2016,05,29,01,48,11.90
2016,05,29,01,49,11.90
2016,05,29,01,50,11.90
2016,05,29,01,51,11.90
2016,05,29,01,52,11.90
2016,05,29,01,53,11.90
2016,05,29,01,54,11.90
2016,05,29,01,55,11.90
2016,05,29,01,56,11.90
2016,05,29,01,57,11.90
2016,05,29,01,58,11.90
2016,05,29,01,59,11.90
2016,05,29,02,00,11.90
2016,05,29,02,01,11.90
2016,05,29,02,02,11.90
2016,05,29,02,03,11.90
2016,05,29,02,04,11.90
2016,05,29,02,05,11.90
2016,05,29,02,06,11.90
2016,05,29,02,07,11.80
2016,05,29,02,08,11.80
2016,05,29,02,09,11.80
2016,05,29,02,10,11.80
2016,05,29,02,11,11.80
2016,05,29,02,12,11.80
2016,05,29,02,13,11.80
2016,05,29,02,14,11.80
2016,05,29,02,15,11.80
2016,05,29,02,16,11.70
2016,05,29,02,17,11.80
2016,05,29,02,18,11.80
2016,05,29,02,19,11.80
2016,05,29,02,20,11.90
2016,05,29,02,21,11.90
2016,05,29,02,22,11.90
2016,05,29,02,23,12.00
2016,05,29,02,24,12.00
2016,05,29,02,25,12.10
2016,05,29,02,26,12.10
2016,05,29,02,27,12.10
2016,05,29,02,28,12.10
2016,05,29,02,29,12.10
2016,05,29,02,30,12.10
2016,05,29,02,31,12.10
2016,05,29,02,32,12.10
2016,05,29,02,33,12.00
2016,05,29,02,34,12.00
2016,05,29,02,35,12.00
2016,05,29,02,36,12.00
2016,05,29,02,37,12.00
2016,05,29,02,38,12.00
2016,05,29,02,39,12.00
2016,05,29,02,40,11.90
2016,05,29,02,41,11.90
2016,05,29,02,42,11.90
2016,05,29,02,43,11.90
2016,05,29,02,44,11.90
2016,05,29,02,45,11.90
2016,05,29,02,46,11.90
2016,05,29,02,47,11.90
2016,05,29,02,48,11.90
2016,05,29,02,49,11.90
2016,05,29,02,50,11.90
2016,05,29,02,51,11.90
2016,05,29,02,52,11.80
2016,05,29,02,53,11.80
2016,05,29,02,54,11.80
2016,05,29,02,55,11.80
2016,05,29,02,56,11.80
2016,05,29,02,57,11.80
2016,05,29,02,58,11.80
2016,05,29,02,59,11.80
2016,05,29,03,00,11.80
2016,05,29,03,01,11.80
2016,05,29,03,02,11.80
2016,05,29,03,03,11.80
2016,05,29,03,04,11.80
2016,05,29,03,05,11.80
2016,05,29,03,06,11.80
2016,05,29,03,07,11.80
2016,05,29,03,08,11.80
2016,05,29,03,09,11.80
2016,05,29,03,10,11.80
2016,05,29,03,11,11.80
2016,05,29,03,12,11.80
2016,05,29,03,13,11.80
2016,05,29,03,14,11.80
2016,05,29,03,15,11.80
2016,05,29,03,16,11.70
2016,05,29,03,17,11.70
2016,05,29,03,18,11.70
2016,05,29,03,19,11.70
2016,05,29,03,20,11.70
2016,05,29,03,21,11.70
2016,05,29,03,22,11.70
2016,05,29,03,23,11.70
2016,05,29,03,24,11.70
2016,05,29,03,25,11.70
2016,05,29,03,26,11.70
2016,05,29,03,27,11.70
2016,05,29,03,28,11.70
2016,05,29,03,29,11.70
2016,05,29,03,30,11.70
2016,05,29,03,31,11.70
2016,05,29,03,32,11.70
2016,05,29,03,33,11.70
2016,05,29,03,34,11.70
2016,05,29,03,35,11.60
2016,05,29,03,36,11.60
2016,05,29,03,37,11.60
2016,05,29,03,38,11.60
2016,05,29,03,39,11.60
2016,05,29,03,40,11.60
2016,05,29,03,41,11.60
2016,05,29,03,42,11.60
2016,05,29,03,43,11.60
2016,05,29,03,44,11.60
2016,05,29,03,45,11.60
2016,05,29,03,46,11.60
2016,05,29,03,47,11.60
2016,05,29,03,48,11.60
2016,05,29,03,49,11.60
2016,05,29,03,50,11.60
2016,05,29,03,51,11.60
2016,05,29,03,52,11.60
2016,05,29,03,53,11.60
2016,05,29,03,54,11.50
2016,05,29,03,55,11.50
2016,05,29,03,56,11.50
2016,05,29,03,57,11.50
2016,05,29,03,58,11.50
2016,05,29,03,59,11.40
2016,05,29,04,00,11.40
2016,05,29,04,01,11.40
2016,05,29,04,02,11.40
2016,05,29,05,04,11.00
2016,05,29,05,05,11.00
2016,05,29,05,06,11.00
2016,05,29,05,07,11.00
2016,05,29,05,08,11.00
2016,05,29,05,09,11.00
2016,05,29,05,10,11.00
2016,05,29,05,11,11.00
2016,05,29,05,12,11.00
2016,05,29,05,13,11.00
2016,05,29,05,14,11.00
2016,05,29,05,15,11.00
2016,05,29,05,16,11.00
2016,05,29,05,17,11.00
2016,05,29,05,18,11.00
2016,05,29,05,19,11.00
2016,05,29,05,20,11.00
2016,05,29,05,21,11.00
2016,05,29,05,22,11.00
2016,05,29,05,23,11.00
2016,05,29,05,24,11.00
2016,05,29,05,25,11.00
2016,05,29,05,26,11.00
2016,05,29,05,27,11.00
2016,05,29,05,28,11.00
2016,05,29,05,29,11.00
2016,05,29,05,30,11.00
2016,05,29,05,31,11.00
2016,05,29,05,32,10.90
2016,05,29,05,33,10.90
2016,05,29,05,34,10.90
2016,05,29,05,35,10.90
2016,05,29,05,36,10.90
2016,05,29,05,37,10.90
2016,05,29,05,38,10.90
2016,05,29,05,39,10.90
2016,05,29,05,40,10.90
2016,05,29,05,41,10.90
2016,05,29,05,42,10.90
2016,05,29,05,43,10.90
2016,05,29,05,44,10.90
2016,05,29,05,45,10.90
2016,05,29,05,46,10.90
2016,05,29,05,47,10.90
2016,05,29,05,48,10.90
2016,05,29,05,49,10.90
2016,05,29,05,50,10.90
2016,05,29,05,51,10.90
2016,05,29,05,52,10.90
2016,05,29,05,53,10.90
2016,05,29,05,54,10.90
2016,05,29,05,55,10.90
2016,05,29,05,56,10.90
2016,05,29,05,57,10.90
2016,05,29,05,58,10.90
2016,05,29,05,59,10.90
2016,05,29,06,00,10.90
2016,05,29,06,01,10.90
2016,05,29,06,02,10.90
2016,05,29,06,03,10.90
2016,05,29,06,04,10.90
2016,05,29,06,05,10.90
2016,05,29,06,06,10.90
2016,05,29,06,07,10.90
2016,05,29,06,08,10.90
2016,05,29,06,09,10.90
2016,05,29,06,10,10.90
2016,05,29,06,11,10.90
2016,05,29,06,12,10.90
2016,05,29,06,13,10.90
2016,05,29,06,14,10.90
2016,05,29,06,15,10.90
2016,05,29,06,16,10.90
2016,05,29,06,17,10.90
2016,05,29,06,18,10.90
2016,05,29,06,19,10.90
2016,05,29,06,20,10.80
2016,05,29,06,21,10.80
2016,05,29,06,22,10.80
2016,05,29,06,23,10.80
2016,05,29,06,24,10.80
2016,05,29,06,25,10.80
2016,05,29,06,26,10.80
2016,05,29,06,27,10.80
2016,05,29,06,28,10.80
2016,05,29,06,29,10.80
2016,05,29,06,30,10.80
2016,05,29,06,31,10.80
2016,05,29,06,32,10.80
2016,05,29,06,33,10.80
2016,05,29,06,34,10.80
2016,05,29,06,35,10.80
2016,05,29,06,36,10.80
2016,05,29,06,37,10.80
2016,05,29,06,38,10.80
2016,05,29,06,39,10.80
2016,05,29,06,40,10.80
2016,05,29,06,41,10.80
2016,05,29,06,42,10.90
2016,05,29,06,43,10.80
2016,05,29,06,44,10.80
2016,05,29,06,45,10.80
2016,05,29,06,46,10.90
2016,05,29,06,47,10.90
2016,05,29,06,48,10.90
2016,05,29,06,49,10.90
2016,05,29,06,50,10.90
2016,05,29,06,51,10.90
2016,05,29,06,52,10.90
2016,05,29,06,53,10.90
2016,05,29,06,54,10.90
2016,05,29,06,55,10.90
2016,05,29,06,56,10.90
2016,05,29,06,57,10.90
2016,05,29,06,58,10.90
2016,05,29,06,59,10.90
2016,05,29,07,00,10.90
2016,05,29,07,01,10.90
2016,05,29,07,02,10.90
2016,05,29,07,03,10.90
2016,05,29,07,04,11.00
2016,05,29,07,05,11.00
2016,05,29,07,06,11.00
2016,05,29,07,07,11.00
2016,05,29,07,08,11.00
2016,05,29,07,09,11.00
2016,05,29,07,10,11.00
2016,05,29,07,11,11.10
2016,05,29,07,12,11.10
2016,05,29,07,13,11.10
2016,05,29,07,14,11.10
2016,05,29,07,15,11.10
2016,05,29,07,16,11.10
2016,05,29,07,17,11.10
2016,05,29,07,18,11.10
2016,05,29,07,19,11.10
2016,05,29,07,20,11.10
2016,05,29,07,21,11.10
2016,05,29,07,22,11.10
2016,05,29,07,23,11.10
2016,05,29,07,24,11.10
2016,05,29,07,25,11.10
2016,05,29,07,26,11.10
2016,05,29,07,27,11.10
2016,05,29,07,28,11.20
2016,05,29,07,29,11.20
2016,05,29,07,30,11.20
2016,05,29,07,31,11.30
2016,05,29,07,32,11.30
2016,05,29,07,33,11.30
2016,05,29,07,34,11.30
2016,05,29,07,35,11.30
2016,05,29,07,36,11.40
2016,05,29,07,37,11.40
2016,05,29,07,38,11.40
2016,05,29,07,39,11.40
2016,05,29,07,40,11.40
2016,05,29,07,41,11.40
2016,05,29,07,42,11.50
2016,05,29,07,43,11.50
2016,05,29,07,44,11.50
2016,05,29,07,45,11.50
2016,05,29,07,46,11.50
2016,05,29,07,47,11.50
2016,05,29,07,48,11.50
2016,05,29,07,49,11.50
2016,05,29,07,50,11.50
2016,05,29,07,51,11.40
2016,05,29,07,52,11.40
2016,05,29,07,53,11.40
2016,05,29,07,54,11.40
2016,05,29,07,55,11.50
2016,05,29,07,56,11.50
2016,05,29,07,57,11.50
2016,05,29,07,58,11.60
2016,05,29,07,59,11.60
2016,05,29,08,00,11.60
2016,05,29,08,01,11.50
2016,05,29,08,02,11.60
2016,05,29,08,03,11.50
2016,05,29,08,04,11.60
2016,05,29,08,05,11.60
2016,05,29,08,06,11.60
2016,05,29,08,07,11.60
2016,05,29,08,08,11.60
2016,05,29,08,09,11.60
2016,05,29,08,10,11.60
2016,05,29,08,11,11.60
2016,05,29,08,12,11.60
2016,05,29,08,13,11.60
2016,05,29,08,14,11.60
2016,05,29,08,15,11.60
2016,05,29,08,16,11.60
2016,05,29,08,17,11.60
2016,05,29,08,18,11.70
2016,05,29,08,19,11.70
2016,05,29,08,20,11.70
2016,05,29,08,21,11.70
2016,05,29,08,22,11.70
2016,05,29,08,23,11.70
2016,05,29,08,24,11.70
2016,05,29,08,25,11.70
2016,05,29,08,26,11.70
2016,05,29,08,27,11.70
2016,05,29,08,28,11.70
2016,05,29,08,29,11.70
2016,05,29,08,30,11.70
2016,05,29,08,31,11.80
2016,05,29,08,32,11.80
2016,05,29,08,33,11.80
2016,05,29,08,34,11.80
2016,05,29,08,35,11.80
2016,05,29,08,36,11.80
2016,05,29,08,37,11.80
2016,05,29,08,38,11.80
2016,05,29,08,39,11.80
2016,05,29,08,40,11.80
2016,05,29,08,41,11.80
2016,05,29,08,42,11.80
2016,05,29,08,43,11.80
2016,05,29,08,44,11.80
2016,05,29,08,45,11.80
2016,05,29,08,46,11.90
2016,05,29,08,47,11.90
2016,05,29,08,48,11.90
2016,05,29,08,49,12.00
2016,05,29,08,50,12.00
2016,05,29,08,51,12.00
2016,05,29,08,52,11.90
2016,05,29,08,53,12.00
2016,05,29,08,54,12.00
2016,05,29,08,55,12.00
2016,05,29,08,56,12.00
2016,05,29,08,57,12.10
2016,05,29,08,58,12.10
2016,05,29,08,59,12.10
2016,05,29,09,00,12.10
2016,05,29,09,01,12.10
2016,05,29,09,02,12.20
2016,05,29,09,03,12.20
2016,05,29,09,04,12.30
2016,05,29,09,05,12.30
2016,05,29,09,06,12.30
2016,05,29,09,07,12.30
2016,05,29,09,08,12.40
2016,05,29,09,09,12.40
2016,05,29,09,10,12.40
2016,05,29,09,11,12.50
2016,05,29,09,12,12.50
2016,05,29,09,13,12.50
2016,05,29,09,14,12.50
2016,05,29,09,15,12.50
2016,05,29,09,16,12.50
2016,05,29,09,17,12.60
2016,05,29,09,18,12.60
2016,05,29,09,19,12.60
2016,05,29,09,20,12.60
2016,05,29,09,21,12.60
2016,05,29,09,22,12.50
2016,05,29,09,23,12.50
2016,05,29,09,24,12.50
2016,05,29,09,25,12.50
2016,05,29,09,26,12.50
2016,05,29,09,27,12.50
2016,05,29,09,28,12.50
2016,05,29,09,29,12.50
2016,05,29,09,30,12.50
2016,05,29,09,31,12.50
2016,05,29,09,32,12.50
2016,05,29,09,33,12.50
2016,05,29,09,34,12.60
2016,05,29,09,35,12.60
2016,05,29,09,36,12.60
2016,05,29,09,37,12.60
2016,05,29,09,38,12.70
2016,05,29,09,39,12.70
2016,05,29,09,40,12.70
2016,05,29,09,41,12.70
2016,05,29,09,42,12.70
2016,05,29,09,43,12.70
2016,05,29,09,44,12.70
2016,05,29,09,45,12.70
2016,05,29,09,46,12.80
2016,05,29,09,47,12.80
2016,05,29,09,48,12.80
2016,05,29,09,49,12.80
2016,05,29,09,50,12.80
2016,05,29,09,51,12.80
2016,05,29,09,52,12.80
2016,05,29,09,53,12.80
2016,05,29,09,54,12.80
2016,05,29,09,55,12.80
2016,05,29,09,56,12.70
2016,05,29,09,57,12.80
2016,05,29,09,58,12.80
2016,05,29,09,59,12.80
2016,05,29,10,00,12.90
2016,05,29,10,01,13.00
2016,05,29,10,02,13.10
2016,05,29,10,03,13.20
2016,05,29,10,04,13.30
2016,05,29,10,05,13.30
2016,05,29,10,06,13.20
2016,05,29,10,07,13.20
2016,05,29,10,08,13.20
2016,05,29,10,09,13.20
2016,05,29,10,10,13.20
2016,05,29,10,11,13.30
2016,05,29,10,12,13.30
2016,05,29,10,13,13.30
2016,05,29,10,14,13.30
2016,05,29,10,15,13.40
2016,05,29,10,16,13.40
2016,05,29,10,17,13.50
2016,05,29,10,18,13.60
2016,05,29,10,19,13.70
2016,05,29,10,20,13.70
2016,05,29,10,21,13.80
2016,05,29,10,22,13.90
2016,05,29,10,23,14.00
2016,05,29,10,24,14.10
2016,05,29,10,25,14.10
2016,05,29,10,26,14.20
2016,05,29,10,27,14.20
2016,05,29,10,28,14.30
2016,05,29,10,29,14.40
2016,05,29,10,30,14.50
2016,05,29,10,31,14.50
2016,05,29,10,32,14.50
2016,05,29,10,33,14.60
2016,05,29,10,34,14.60
2016,05,29,10,35,14.60
2016,05,29,10,36,14.70
2016,05,29,10,37,14.70
2016,05,29,10,38,14.70
2016,05,29,10,39,14.80
2016,05,29,10,40,14.80
2016,05,29,10,41,14.80
2016,05,29,10,42,14.70
2016,05,29,10,43,14.70
2016,05,29,10,44,14.70
2016,05,29,10,45,14.70
2016,05,29,10,46,14.70
2016,05,29,10,47,14.80
2016,05,29,10,48,14.80
2016,05,29,10,49,14.90
2016,05,29,10,50,14.90
2016,05,29,10,51,15.00
2016,05,29,10,52,15.00
2016,05,29,10,53,15.10
2016,05,29,10,54,15.20
2016,05,29,10,55,15.20
2016,05,29,10,56,15.20
2016,05,29,10,57,15.20
2016,05,29,10,58,15.20
2016,05,29,10,59,15.20
2016,05,29,11,00,15.10
2016,05,29,11,01,15.10
2016,05,29,11,02,15.20
2016,05,29,11,03,15.20
2016,05,29,11,04,15.20
2016,05,29,11,05,15.20
2016,05,29,11,06,15.20
2016,05,29,11,07,15.30
2016,05,29,11,08,15.30
2016,05,29,11,09,15.30
2016,05,29,11,10,15.20
2016,05,29,11,11,15.10
2016,05,29,11,12,15.00
2016,05,29,11,13,15.00
2016,05,29,11,14,14.90
2016,05,29,11,15,14.90
2016,05,29,11,16,14.90
2016,05,29,11,17,14.90
2016,05,29,11,18,14.90
2016,05,29,11,19,15.00
2016,05,29,11,20,15.10
2016,05,29,11,21,15.20
2016,05,29,11,22,15.20
2016,05,29,11,23,15.30
2016,05,29,11,24,15.30
2016,05,29,11,25,15.20
2016,05,29,11,26,15.20
2016,05,29,11,27,15.20
2016,05,29,11,28,15.20
2016,05,29,11,29,15.20
2016,05,29,11,30,15.20
2016,05,29,11,31,15.20
2016,05,29,11,32,15.20
2016,05,29,11,33,15.30
2016,05,29,11,34,15.30
2016,05,29,11,35,15.30
2016,05,29,11,36,15.30
2016,05,29,11,37,15.40
2016,05,29,11,38,15.50
2016,05,29,11,39,15.60
2016,05,29,11,40,15.70
2016,05,29,11,41,15.70
2016,05,29,11,42,15.70
2016,05,29,11,43,15.80
2016,05,29,11,44,15.80
2016,05,29,11,45,15.80
2016,05,29,11,46,15.80
2016,05,29,11,47,15.80
2016,05,29,11,48,15.80
2016,05,29,11,49,15.80
2016,05,29,11,50,15.80
2016,05,29,11,51,15.90
2016,05,29,11,52,16.00
2016,05,29,11,53,16.00
2016,05,29,11,54,16.00
2016,05,29,11,55,15.80
2016,05,29,11,56,15.70
2016,05,29,11,57,15.70
2016,05,29,11,58,15.70
2016,05,29,11,59,15.70
2016,05,29,12,00,15.60
2016,05,29,12,01,15.50
2016,05,29,12,02,15.50
2016,05,29,12,03,15.50
2016,05,29,12,04,15.50
2016,05,29,12,05,15.60
2016,05,29,12,06,15.70
2016,05,29,12,07,15.70
2016,05,29,12,08,15.80
2016,05,29,12,09,15.80
2016,05,29,12,10,15.70
2016,05,29,12,11,15.70
2016,05,29,12,12,15.50
2016,05,29,12,13,15.50
2016,05,29,12,14,15.50
2016,05,29,12,15,15.50
2016,05,29,12,16,15.60
2016,05,29,12,17,15.70
2016,05,29,12,18,15.70
2016,05,29,12,19,15.80
2016,05,29,12,20,15.80
2016,05,29,12,21,15.90
2016,05,29,12,22,15.90
2016,05,29,12,23,15.90
2016,05,29,12,24,15.90
2016,05,29,12,25,15.90
2016,05,29,12,26,15.90
2016,05,29,12,27,15.80
2016,05,29,12,28,15.70
2016,05,29,12,29,15.70
2016,05,29,12,30,15.70
2016,05,29,12,31,15.60
2016,05,29,12,32,15.60
2016,05,29,12,33,15.60
2016,05,29,12,34,15.70
2016,05,29,12,35,15.80
2016,05,29,12,36,15.80
2016,05,29,12,37,15.90
2016,05,29,12,38,15.90
2016,05,29,12,39,15.90
2016,05,29,12,40,15.90
2016,05,29,12,41,16.00
2016,05,29,12,42,16.00
2016,05,29,12,43,16.10
2016,05,29,12,44,16.20
2016,05,29,12,45,16.30
2016,05,29,12,46,16.40
2016,05,29,12,47,16.40
2016,05,29,12,48,16.50
2016,05,29,12,49,16.60
2016,05,29,12,50,16.60
2016,05,29,12,51,16.60
2016,05,29,12,52,16.60
2016,05,29,12,53,16.70
2016,05,29,12,54,16.80
2016,05,29,12,55,16.80
2016,05,29,12,56,16.80
2016,05,29,12,57,16.80
2016,05,29,12,58,16.80
2016,05,29,12,59,16.80
2016,05,29,13,00,16.70
2016,05,29,13,01,16.70
2016,05,29,13,02,16.70
2016,05,29,13,03,16.70
2016,05,29,13,04,16.70
2016,05,29,13,05,16.70
2016,05,29,13,06,16.70
2016,05,29,13,07,16.80
2016,05,29,13,08,16.80
2016,05,29,13,09,16.80
2016,05,29,13,10,16.80
2016,05,29,13,11,16.80
2016,05,29,13,12,16.80
2016,05,29,13,13,16.70
2016,05,29,13,14,16.70
2016,05,29,13,15,16.70
2016,05,29,13,16,16.60
2016,05,29,13,17,16.60
2016,05,29,13,18,16.50
2016,05,29,13,19,16.50
2016,05,29,13,20,16.60
2016,05,29,13,21,16.60
2016,05,29,13,22,16.70
2016,05,29,13,23,16.70
2016,05,29,13,24,16.80
2016,05,29,13,25,16.80
2016,05,29,13,26,16.90
2016,05,29,13,27,17.00
2016,05,29,13,28,17.10
2016,05,29,13,29,17.10
2016,05,29,13,30,17.00
2016,05,29,13,31,16.90
2016,05,29,13,32,16.80
2016,05,29,13,33,16.80
2016,05,29,13,34,16.80
2016,05,29,13,35,16.80
2016,05,29,13,36,16.80
2016,05,29,13,37,16.90
2016,05,29,13,38,16.90
2016,05,29,13,39,16.80
2016,05,29,13,40,16.80
2016,05,29,13,41,16.90
2016,05,29,13,42,16.90
2016,05,29,13,43,16.90
2016,05,29,13,44,16.80
2016,05,29,13,45,16.70
2016,05,29,13,46,16.80
2016,05,29,13,47,16.80
2016,05,29,13,48,16.80
2016,05,29,13,49,16.90
2016,05,29,13,50,17.00
2016,05,29,13,51,17.00
2016,05,29,13,52,16.90
2016,05,29,13,53,16.90
2016,05,29,13,54,16.90
2016,05,29,13,55,16.90
2016,05,29,13,56,16.90
2016,05,29,13,57,16.90
2016,05,29,13,58,16.90
2016,05,29,13,59,16.90
2016,05,29,14,00,17.00
2016,05,29,14,01,17.00
2016,05,29,14,02,16.90
2016,05,29,14,03,17.00
2016,05,29,14,04,17.00
2016,05,29,14,05,17.00
2016,05,29,14,06,16.90
2016,05,29,14,07,16.90
2016,05,29,14,08,16.90
2016,05,29,14,09,16.80
2016,05,29,14,10,16.80
2016,05,29,14,11,16.80
2016,05,29,14,12,16.90
2016,05,29,14,13,16.90
2016,05,29,14,14,17.00
2016,05,29,14,15,17.00
2016,05,29,14,16,17.00
2016,05,29,14,17,17.00
2016,05,29,14,18,17.00
2016,05,29,14,19,17.10
2016,05,29,14,20,17.10
2016,05,29,14,21,17.10
2016,05,29,14,22,17.10
2016,05,29,14,23,17.10
2016,05,29,14,24,17.10
2016,05,29,14,25,17.10
2016,05,29,14,26,17.10
2016,05,29,14,27,17.10
2016,05,29,14,28,17.00
2016,05,29,14,29,17.00
2016,05,29,14,30,17.00
2016,05,29,14,31,17.10
2016,05,29,14,32,17.10
2016,05,29,14,33,17.20
2016,05,29,14,34,17.30
2016,05,29,14,35,17.30
2016,05,29,14,36,17.30
2016,05,29,14,37,17.20
2016,05,29,14,38,17.30
2016,05,29,14,39,17.30
2016,05,29,14,40,17.30
2016,05,29,14,41,17.20
2016,05,29,14,42,17.20
2016,05,29,14,43,17.10
2016,05,29,14,44,17.10
2016,05,29,14,45,17.10
2016,05,29,14,46,17.10
2016,05,29,14,47,17.10
2016,05,29,14,48,17.20
2016,05,29,14,49,17.20
2016,05,29,14,50,17.30
2016,05,29,14,51,17.30
2016,05,29,14,52,17.40
2016,05,29,14,53,17.40
2016,05,29,14,54,17.40
2016,05,29,14,55,17.40
2016,05,29,14,56,17.40
2016,05,29,14,57,17.40
2016,05,29,14,58,17.40
2016,05,29,14,59,17.40
2016,05,29,15,00,17.50
2016,05,29,15,01,17.50
2016,05,29,15,02,17.60
2016,05,29,15,03,17.70
2016,05,29,15,04,17.70
2016,05,29,15,05,17.70
2016,05,29,15,06,17.70
2016,05,29,15,07,17.70
2016,05,29,15,08,17.70
2016,05,29,15,09,17.70
2016,05,29,15,10,17.70
2016,05,29,15,11,17.80
2016,05,29,15,12,17.80
2016,05,29,15,13,17.90
2016,05,29,15,14,17.90
2016,05,29,15,15,17.90
2016,05,29,15,16,17.90
2016,05,29,15,17,17.90
2016,05,29,15,18,18.00
2016,05,29,15,19,18.00
2016,05,29,15,20,18.10
2016,05,29,15,21,18.10
2016,05,29,15,22,18.10
2016,05,29,15,23,18.10
2016,05,29,15,24,18.00
2016,05,29,15,25,18.00
2016,05,29,15,26,17.90
2016,05,29,15,27,18.00
2016,05,29,15,28,18.00
2016,05,29,15,29,18.00
2016,05,29,15,30,17.90
2016,05,29,15,31,17.90
2016,05,29,15,32,17.80
2016,05,29,15,33,17.80
2016,05,29,15,34,17.70
2016,05,29,15,35,17.80
2016,05,29,15,36,17.80
2016,05,29,15,37,17.80
2016,05,29,15,38,17.90
2016,05,29,15,39,17.90
2016,05,29,15,40,17.80
2016,05,29,15,41,17.80
2016,05,29,15,42,17.90
2016,05,29,15,43,17.90
2016,05,29,15,44,18.00
2016,05,29,15,45,18.00
2016,05,29,15,46,17.90
2016,05,29,15,47,17.90
2016,05,29,15,48,17.90
2016,05,29,15,49,17.90
2016,05,29,15,50,17.90
2016,05,29,15,51,18.00
2016,05,29,15,52,18.00
2016,05,29,15,53,18.10
2016,05,29,15,54,18.10
2016,05,29,15,55,18.10
2016,05,29,15,56,18.10
2016,05,29,15,57,18.00
2016,05,29,15,58,17.90
2016,05,29,15,59,17.90
2016,05,29,16,00,17.80
2016,05,29,16,01,17.80
2016,05,29,16,02,17.80
2016,05,29,16,03,17.80
2016,05,29,16,04,17.90
2016,05,29,16,05,17.90
2016,05,29,16,06,17.80
2016,05,29,16,07,17.90
2016,05,29,16,08,17.90
2016,05,29,16,09,17.90
2016,05,29,17,04,18.40
2016,05,29,17,05,18.40
2016,05,29,17,06,18.50
2016,05,29,17,07,18.60
2016,05,29,17,08,18.60
2016,05,29,17,09,18.60
2016,05,29,17,10,18.60
2016,05,29,17,11,18.50
2016,05,29,17,12,18.40
2016,05,29,17,13,18.30
2016,05,29,17,14,18.30
2016,05,29,17,15,18.30
2016,05,29,17,16,18.30
2016,05,29,17,17,18.30
2016,05,29,17,18,18.40
2016,05,29,17,19,18.40
2016,05,29,17,20,18.40
2016,05,29,17,21,18.30
2016,05,29,17,22,18.20
2016,05,29,17,23,18.10
2016,05,29,17,24,18.10
2016,05,29,17,25,18.20
2016,05,29,17,26,18.20
2016,05,29,17,27,18.20
2016,05,29,17,28,18.20
2016,05,29,17,29,18.20
2016,05,29,17,30,18.20
2016,05,29,17,31,18.20
2016,05,29,17,32,18.20
2016,05,29,17,33,18.20
2016,05,29,17,34,18.30
2016,05,29,17,35,18.30
2016,05,29,17,36,18.30
2016,05,29,17,37,18.20
2016,05,29,17,38,18.20
2016,05,29,17,39,18.20
2016,05,29,17,40,18.20
2016,05,29,17,41,18.20
2016,05,29,17,42,18.20
2016,05,29,17,43,18.10
2016,05,29,17,44,18.10
2016,05,29,17,45,18.00
2016,05,29,17,46,17.90
2016,05,29,17,47,17.80
2016,05,29,17,48,17.70
2016,05,29,17,49,17.60
2016,05,29,17,50,17.60
2016,05,29,17,51,17.50
2016,05,29,17,52,17.50
2016,05,29,17,53,17.60
2016,05,29,17,54,17.70
2016,05,29,17,55,17.80
2016,05,29,17,56,17.80
2016,05,29,17,57,17.90
2016,05,29,17,58,18.00
2016,05,29,17,59,18.10
2016,05,29,18,00,18.10
2016,05,29,18,01,18.10
2016,05,29,18,02,18.10
2016,05,29,18,03,18.00
2016,05,29,18,04,17.90
2016,05,29,18,05,17.80
2016,05,29,18,06,17.70
2016,05,29,18,07,17.70
2016,05,29,18,08,17.80
2016,05,29,18,09,17.80
2016,05,29,18,10,17.80
2016,05,29,18,11,17.80
2016,05,29,18,12,17.80
2016,05,29,18,13,17.80
2016,05,29,18,14,17.80
2016,05,29,18,15,17.90
2016,05,29,18,16,17.90
2016,05,29,18,17,17.90
2016,05,29,18,18,17.80
2016,05,29,18,19,17.70
2016,05,29,18,20,17.70
2016,05,29,18,21,17.70
2016,05,29,18,22,17.60
2016,05,29,18,23,17.50
2016,05,29,18,24,17.50
2016,05,29,18,25,17.40
2016,05,29,18,26,17.40
2016,05,29,18,27,17.40
2016,05,29,18,28,17.40
2016,05,29,18,29,17.30
2016,05,29,18,30,17.30
2016,05,29,18,31,17.30
2016,05,29,18,32,17.30
2016,05,29,18,33,17.30
2016,05,29,18,34,17.30
2016,05,29,18,35,17.30
2016,05,29,18,36,17.30
2016,05,29,18,37,17.30
2016,05,29,18,38,17.40
2016,05,29,18,39,17.50
2016,05,29,18,40,17.60
2016,05,29,18,41,17.70
2016,05,29,18,42,17.70
2016,05,29,18,43,17.70
2016,05,29,18,44,17.70
2016,05,29,18,45,17.70
2016,05,29,18,46,17.70
2016,05,29,18,47,17.70
2016,05,29,18,48,17.70
2016,05,29,18,49,17.80
2016,05,29,18,50,17.80
2016,05,29,18,51,17.80
2016,05,29,18,52,17.80
2016,05,29,18,53,17.80
2016,05,29,18,54,17.70
2016,05,29,18,55,17.70
2016,05,29,18,56,17.60
2016,05,29,18,57,17.50
2016,05,29,18,58,17.50
2016,05,29,18,59,17.50
2016,05,29,19,00,17.40
2016,05,29,19,01,17.40
2016,05,29,19,02,17.40
2016,05,29,19,03,17.30
2016,05,29,19,04,17.30
2016,05,29,19,05,17.30
2016,05,29,19,06,17.20
2016,05,29,19,07,17.20
2016,05,29,19,08,17.10
2016,05,29,19,09,17.00
2016,05,29,19,10,17.00
2016,05,29,19,11,17.00
2016,05,29,19,12,17.00
2016,05,29,19,13,17.00
2016,05,29,19,14,16.90